Terminal Aerodrome Forecast
Issued by NWS

Home | Current Version | Previous Version | Text Only | Print | Product List | Glossary On
Versions: 1 2 3 4 5 6 7 8 9 10 11 12 13 14 15
000
FTUS44 KLIX 301004 AAA
TAFGPT
TAF AMD
KGPT 301004Z 3010/3106 VRB03KT P6SM BKN025
      TEMPO 3011/3013 5SM BR SCT025
     FM301400 26009KT P6SM SCT022 BKN030
     FM302000 23012KT P6SM VCTS BKN040CB BKN250
     FM310100 19008KT P6SM SCT035 BKN250=

USA.gov is the U.S. government's official web portal to all federal, state and local government web resources and services.